Location: Kaarina
(60.4167°N, 22.4167°E)
Time: 18:03:02
(UTC+03:00)

IGS 5A - Pass Details

Date: 24 August 2019
Orbit: 583 x 589 km, 97.6° (Epoch: 27 September)

Event Time Altitude Azimuth Distance (km) Brightness Sun altitude
Exits shadow 22:38:32 12° 165° (SSE) 1,817 5.4 -10.7°
Maximum altitude 22:42:28 83° 254° (WSW) 604 3.5 -11.0°
Drops below altitude 10° 22:46:41 10° 343° (NNW) 1,934 7.2 -11.4°
Sets 22:48:51 0° 344° (NNW) 2,840 8.3 -11.6°
